Wind_Speed
30 30 29 29 28 28 29 30 30 29 29 28 28 27 27 27 27 28 28 27 28 27 28 28 28 27 26 26 27 27 27 28 28 27 26 26 25 25 26 26 27 27 27 28
31 31 31 31 30 30 30 30 31 31 31 29 29 29 28 28 29 29 30 30 30 31 30 30 29 28 28 28 29 28 28 28 28 27 28 27 26 27 27 27 28 28 28 29
31 31 32 33 31 31 31 31 31 32 32 31 30 30 30 29 30 31 31 32 32 32 32 31 30 30 30 30 31 30 29 28 29 28 28 28 27 28 28 29 29 29 29 30
32 32 34 32 32 32 32 31 31 31 31 31 31 31 30 30 30 30 31 32 33 34 33 31 30 30 31 32 31 31 30 30 31 30 29 30 29 30 30 31 31 31 31 31
32 33 33 32 31 31 31 31 31 31 31 31 31 31 32 32 31 32 32 32 33 33 32 32 32 32 33 33 33 32 32 32 32 32 32 32 32 33 33 34 34 34 34 33
33 33 33 32 32 31 32 33 31 31 31 31 32 32 32 32 32 33 34 33 33 34 33 33 34 34 33 33 34 33 33 34 34 34 35 35 35 35 35 36 35 35 35 35
33 33 34 33 32 32 33 32 31 32 32 32 32 32 33 34 34 34 34 34 34 34 34 34 34 34 34 34 35 36 35 35 36 36 36 36 36 36 37 37 37 37 37 36
32 32 32 32 32 33 34 33 32 33 33 32 32 33 33 34 35 35 35 34 34 34 34 34 34 35 35 35 36 36 37 37 37 36 37 37 38 38 38 37 38 38 37 37
32 32 32 32 32 32 33 33 33 34 33 32 32 32 33 34 35 35 35 35 35 35 35 35 35 35 36 36 37 38 39 38 37 37 37 37 37 38 38 37 38 38 37 37
32 32 33 33 32 33 33 33 33 33 32 32 32 33 34 34 35 35 35 34 35 35 35 35 35 35 36 36 37 38 38 37 37 38 38 37 37 37 38 38 37 37 37 37
32 32 33 32 32 33 33 33 33 33 33 32 33 33 33 33 33 34 34 34 34 34 34 34 34 34 35 36 37 36 36 36 37 39 39 38 37 37 37 37 36 36 36 36
31 31 32 33 33 33 33 33 33 33 33 33 32 32 32 32 32 33 33 33 32 32 32 32 33 34 34 34 34 34 35 36 36 35 35 35 36 36 35 35 35 34 34 34
31 31 31 31 32 32 33 33 32 32 32 32 32 33 32 32 32 33 33 32 32 32 32 32 33 34 34 34 35 35 35 35 35 34 34 34 34 34 34 33 33 34 34 34
30 30 30 30 30 31 31 31 31 31 31 31 32 32 33 33 32 33 33 33 32 33 33 33 33 33 34 34 34 34 34 34 34 33 33 33 33 33 33 33 32 32 33 32
29 30 29 29 28 29 29 29 29 30 31 32 32 33 33 33 33 32 32 32 32 32 32 32 32 32 33 33 33 33 33 32 32 32 32 33 32 32 33 33 32 31 31 31
28 29 29 29 28 28 29 30 29 30 31 31 32 32 32 31 31 31 31 32 32 31 31 32 32 32 32 32 31 32 32 32 32 32 32 32 32 32 32 32 32 31 31 30
28 28 28 29 29 29 29 29 30 30 30 30 30 30 29 29 30 31 31 31 32 32 31 32 32 32 31 31 32 32 32 32 32 32 31 31 31 31 31 31 31 30 30 30
28 28 28 28 28 29 29 29 29 29 29 29 29 29 29 30 29 29 30 31 32 31 31 31 31 31 30 30 30 31 31 31 31 31 31 30 30 30 30 30 30 30 29 29
27 28 28 28 29 29 29 28 28 28 28 27 27 28 28 28 29 29 31 31 31 31 30 30 30 30 29 29 29 30 30 30 30 29 29 29 29 29 30 30 30 29 29 28
26 27 27 28 28 28 28 28 27 27 27 27 27 27 27 27 28 29 29 30 29 29 29 29 29 29 29 29 29 29 29 29 29 29 29 29 29 30 30 30 29 29 28 28
26 27 27 27 27 27 27 27 26 26 26 26 26 26 26 26 26 27 28 28 29 29 28 28 28 28 28 28 28 29 29 29 29 29 29 29 29 29 29 28 28 27 27 27
26 26 26 26 26 26 26 26 26 26 26 27 26 26 26 25 26 26 27 27 27 26 26 26 27 27 27 27 27 28 29 29 29 29 29 29 28 28 28 27 26 26 26 26
25 25 25 25 25 25 25 25 25 26 26 25 25 25 25 26 26 26 25 25 25 25 25 26 26 27 27 27 27 28 28 28 27 28 28 28 27 27 26 26 26 26 26 25
24 24 23 23 24 24 24 24 24 24 24 23 24 25 25 26 26 26 26 25 25 25 25 26 26 26 26 26 27 27 27 26 27 27 27 26 26 26 26 26 25 24 25 25
22 22 22 23 23 23 23 24 24 24 24 23 24 24 24 25 25 24 24 24 25 26 26 26 26 26 26 26 26 26 26 26 26 26 26 26 26 26 26 26 25 25 24 24
20 21 21 21 21 21 22 22 23 23 23 24 24 23 23 23 23 23 23 24 25 25 25 25 26 26 26 26 26 26 26 26 26 25 25 25 25 25 25 25 25 24 24 24
19 20 20 20 20 20 20 21 21 21 22 22 22 22 21 22 22 23 24 24 25 25 25 25 25 25 26 26 26 26 26 25 25 24 24 24 24 24 24 24 24 23 23 24
Wind_Direction
250 249 249 251 252 254 256 259 263 268 270 272 272 272 272 271 272 274 277 280 280 281 281 281 281 282 282 284 285 288 289 291 291 290 290 290 293 295 295 297 298 298 298 298
252 252 253 254 254 255 257 260 263 267 269 272 274 272 273 273 273 274 276 278 280 280 282 281 282 282 283 285 287 288 289 289 290 289 290 292 294 296 296 297 297 297 297 297
254 254 255 256 258 261 262 264 266 268 269 269 271 271 272 273 273 275 275 275 277 278 278 281 283 284 282 284 285 286 286 288 289 290 291 294 294 294 295 296 296 296 297 296
256 257 258 260 262 264 266 268 269 270 270 270 270 271 272 274 275 274 275 278 278 278 280 281 283 284 284 283 282 283 285 286 287 288 290 292 293 293 294 295 295 295 295 296
257 259 262 262 263 266 269 271 271 272 272 272 271 271 272 274 274 274 274 277 279 280 282 283 285 285 286 284 281 281 283 284 286 287 288 290 290 292 293 294 294 294 294 294
258 260 261 264 265 267 269 270 271 270 271 271 271 270 271 273 275 276 276 278 280 280 281 282 284 284 284 285 283 283 283 284 286 288 288 288 289 290 292 293 292 292 292 293
258 261 263 265 267 267 269 271 271 271 271 272 271 270 272 274 276 276 277 280 283 283 282 283 285 286 285 284 284 285 285 285 286 288 288 288 288 289 290 291 291 291 291 292
259 261 264 267 268 268 270 270 271 271 272 272 272 272 273 274 275 277 279 281 283 283 283 283 283 284 284 284 285 285 286 287 288 288 287 287 287 287 288 288 289 291 291 292
259 261 264 266 268 269 269 269 269 270 270 270 271 271 272 273 275 276 277 279 280 280 281 281 281 282 283 283 284 285 285 286 286 287 287 285 285 287 287 289 289 290 291 292
259 261 263 265 266 267 268 268 269 269 270 270 270 271 272 273 274 276 278 279 279 280 280 280 281 282 283 284 285 285 285 286 287 287 287 287 286 286 288 289 289 290 291 291
261 263 265 265 266 267 267 267 267 268 269 269 271 272 274 274 276 277 279 280 281 280 280 281 283 284 284 285 286 286 286 286 287 287 287 285 286 288 288 288 288 290 291 291
262 265 267 267 267 269 270 269 269 270 271 272 273 274 275 276 278 279 280 280 280 280 282 284 284 284 285 287 287 287 288 288 289 288 288 287 287 288 288 289 289 290 291 291
264 265 267 268 269 270 271 272 272 272 272 273 274 274 274 276 277 278 278 279 279 280 282 284 285 286 286 288 288 289 289 289 289 289 288 288 288 288 288 289 290 291 291 291
264 266 268 269 270 271 272 272 273 273 274 275 275 275 274 274 275 276 277 279 280 280 282 284 286 287 288 288 289 290 290 291 290 291 290 290 289 288 288 287 288 289 288 288
264 265 266 268 270 271 273 274 275 275 276 276 276 276 276 276 275 275 276 278 279 280 282 285 287 288 289 289 290 291 292 292 291 291 291 291 290 289 288 287 287 287 287 287
265 266 267 269 270 272 274 276 278 278 278 278 277 276 276 277 276 276 278 278 280 282 283 285 287 288 289 290 291 292 292 290 291 291 291 291 290 289 288 288 288 287 286 286
265 267 269 270 271 272 273 275 277 278 279 281 279 278 277 276 276 278 279 280 282 282 283 286 287 287 288 289 290 292 291 290 291 292 291 290 290 289 289 289 288 287 286 285
265 268 270 271 272 274 275 276 277 280 281 281 278 277 277 276 276 278 278 281 284 284 284 286 286 286 286 287 289 290 291 291 291 290 290 290 290 289 289 288 287 287 286 285
265 268 270 272 274 275 276 278 279 281 282 282 281 281 280 278 279 280 282 284 284 284 285 286 287 286 286 287 289 291 292 292 291 290 290 291 292 291 290 288 288 287 287 285
267 267 269 272 274 276 277 278 279 282 283 284 283 282 282 281 280 281 282 285 285 284 284 285 286 287 287 288 290 292 293 294 293 291 291 292 292 292 291 290 289 288 286 285
268 269 270 272 274 276 278 280 280 280 280 282 284 284 284 284 283 283 283 284 286 286 286 286 287 288 289 290 292 293 293 294 294 294 293 292 292 292 291 290 289 288 286 285
267 270 271 273 274 275 277 279 280 280 282 283 284 285 286 288 288 287 286 287 287 287 288 289 289 290 291 291 293 295 295 294 294 295 296 294 293 294 293 290 288 288 288 287
266 268 270 272 274 276 277 278 279 282 284 285 285 286 286 287 289 289 288 287 287 288 289 289 290 291 292 292 292 294 295 295 295 296 296 295 295 294 294 293 291 290 287 287
265 268 270 272 274 275 277 279 281 282 284 285 286 286 287 287 288 288 286 287 287 288 288 289 291 292 292 293 293 294 295 294 296 297 297 296 295 295 294 294 294 292 290 289
268 269 270 272 275 277 278 279 280 281 282 285 287 287 287 287 287 287 287 288 289 289 289 289 290 290 290 291 293 294 295 296 297 297 296 295 295 295 295 294 293 291 292 292
271 271 272 274 277 278 279 280 282 283 283 284 286 285 285 287 288 290 292 293 293 293 292 292 292 292 292 292 294 295 296 298 298 296 296 296 296 296 295 293 292 292 292 293
275 274 274 275 278 279 281 283 284 284 285 287 287 287 288 289 291 292 293 294 294 293 293 293 293 293 293 294 295 296 296 297 297 296 296 295 296 296 295 294 293 292 292 293
Height
5858 5861 5862 5864 5865 5867 5868 5869 5869 5870 5871 5872 5872 5873 5873 5873 5872 5872 5871 5871 5869 5869 5868 5867 5865 5864 5862 5861 5859 5858 5856 5855 5852 5850 5849 5848 5846 5845 5843 5841 5839 5837 5835 5833
5852 5854 5855 5856 5858 5859 5861 5862 5862 5863 5864 5865 5865 5865 5865 5865 5865 5864 5864 5863 5862 5861 5860 5859 5857 5856 5855 5853 5852 5851 5849 5848 5846 5843 5842 5841 5840 5838 5837 5834 5832 5830 5828 5826
5844 5846 5847 5849 5851 5853 5854 5855 5856 5856 5857 5857 5857 5857 5858 5857 5857 5856 5856 5855 5854 5853 5852 5851 5850 5848 5846 5845 5844 5843 5842 5840 5839 5837 5835 5834 5833 5831 5829 5827 5825 5823 5821 5818
5837 5839 5839 5844 5844 5845 5846 5847 5848 5848 5848 5849 5849 5849 5849 5849 5849 5848 5848 5847 5846 5844 5844 5842 5841 5840 5838 5837 5836 5835 5834 5832 5831 5829 5828 5827 5825 5823 5822 5820 5818 5815 5813 5811
5829 5830 5831 5835 5836 5837 5838 5838 5840 5840 5840 5841 5841 5841 5841 5841 5840 5840 5839 5838 5837 5836 5835 5834 5833 5832 5830 5829 5828 5827 5826 5824 5823 5821 5820 5818 5817 5815 5813 5811 5809 5806 5804 5802
5821 5822 5824 5828 5829 5829 5830 5830 5832 5831 5831 5832 5832 5832 5833 5832 5832 5831 5830 5829 5828 5827 5826 5825 5824 5823 5821 5820 5819 5818 5817 5816 5814 5812 5811 5809 5807 5805 5803 5801 5799 5796 5794 5792
5814 5815 5816 5819 5820 5821 5823 5824 5823 5822 5823 5822 5822 5823 5824 5823 5822 5822 5821 5820 5819 5818 5817 5816 5815 5814 5813 5811 5810 5809 5807 5806 5804 5803 5801 5799 5797 5795 5793 5791 5789 5786 5784 5781
5806 5808 5811 5811 5812 5813 5814 5814 5814 5813 5813 5813 5813 5814 5814 5813 5813 5812 5812 5811 5810 5809 5808 5807 5805 5804 5803 5802 5800 5799 5797 5795 5794 5792 5790 5788 5786 5785 5783 5780 5778 5776 5773 5771
5800 5803 5803 5803 5804 5804 5804 5805 5805 5804 5804 5804 5805 5805 5805 5804 5804 5803 5802 5801 5800 5799 5798 5797 5795 5794 5793 5792 5790 5789 5787 5785 5783 5782 5779 5777 5775 5774 5772 5769 5766 5765 5762 5760
5792 5793 5794 5795 5795 5795 5795 5796 5796 5796 5796 5796 5796 5796 5795 5795 5794 5793 5792 5791 5790 5789 5788 5787 5786 5784 5783 5781 5780 5778 5776 5774 5772 5771 5768 5766 5764 5762 5761 5758 5756 5754 5752 5750
5783 5785 5785 5786 5786 5786 5786 5787 5787 5787 5787 5787 5787 5787 5786 5785 5784 5783 5783 5782 5780 5779 5778 5777 5775 5774 5772 5771 5769 5767 5765 5764 5762 5759 5757 5754 5753 5751 5749 5747 5745 5743 5741 5738
5775 5776 5776 5777 5777 5777 5777 5777 5778 5778 5778 5778 5778 5777 5777 5776 5775 5774 5773 5772 5771 5770 5768 5767 5765 5764 5762 5760 5758 5757 5755 5753 5750 5748 5746 5744 5742 5740 5738 5736 5734 5732 5730 5727
5766 5766 5767 5767 5768 5768 5768 5768 5768 5768 5769 5769 5769 5768 5767 5766 5765 5764 5763 5762 5761 5760 5759 5757 5756 5754 5752 5750 5748 5746 5744 5742 5739 5737 5735 5733 5731 5729 5727 5725 5723 5721 5719 5717
5757 5758 5758 5759 5759 5759 5759 5759 5759 5759 5759 5759 5759 5758 5757 5757 5756 5755 5754 5753 5752 5751 5749 5748 5746 5744 5742 5740 5738 5736 5734 5731 5728 5726 5724 5721 5719 5717 5716 5714 5713 5710 5708 5706
5749 5750 5750 5751 5751 5751 5751 5750 5750 5750 5750 5750 5749 5748 5748 5747 5746 5745 5744 5744 5742 5741 5740 5738 5736 5735 5733 5730 5728 5726 5723 5721 5718 5716 5713 5711 5709 5706 5704 5703 5702 5700 5698 5696
5741 5741 5742 5743 5743 5743 5743 5742 5742 5741 5741 5740 5740 5739 5738 5737 5737 5735 5735 5734 5733 5732 5731 5729 5727 5725 5723 5721 5719 5716 5713 5711 5708 5706 5703 5701 5699 5696 5694 5692 5691 5690 5688 5686
5733 5734 5734 5735 5735 5735 5734 5734 5733 5732 5732 5731 5730 5729 5729 5728 5728 5727 5726 5725 5724 5722 5721 5719 5717 5716 5714 5711 5709 5706 5704 5701 5698 5696 5693 5691 5688 5686 5684 5682 5681 5679 5678 5676
5725 5726 5726 5726 5727 5727 5726 5726 5725 5724 5723 5722 5721 5721 5720 5719 5718 5718 5717 5716 5715 5713 5711 5710 5708 5706 5704 5702 5699 5697 5695 5692 5689 5686 5684 5681 5679 5677 5675 5673 5671 5669 5668 5667
5717 5718 5718 5718 5718 5718 5718 5717 5717 5716 5715 5714 5713 5712 5711 5710 5709 5709 5708 5706 5705 5704 5703 5701 5699 5697 5694 5692 5690 5688 5686 5683 5680 5678 5675 5673 5671 5668 5666 5664 5662 5660 5659 5657
5709 5710 5710 5710 5710 5710 5710 5709 5709 5708 5707 5706 5705 5704 5703 5702 5701 5700 5699 5698 5697 5695 5693 5692 5690 5688 5686 5684 5682 5679 5677 5674 5672 5669 5667 5665 5662 5660 5658 5655 5654 5652 5650 5649
5701 5701 5702 5702 5702 5702 5702 5701 5701 5700 5700 5699 5698 5697 5695 5694 5693 5692 5690 5689 5688 5686 5685 5683 5682 5680 5678 5676 5674 5671 5669 5667 5664 5661 5659 5656 5654 5652 5649 5647 5645 5644 5642 5641
5693 5693 5694 5694 5694 5695 5694 5694 5693 5693 5692 5691 5690 5689 5688 5686 5685 5684 5682 5681 5680 5678 5677 5675 5674 5672 5670 5668 5666 5664 5661 5659 5656 5654 5651 5649 5646 5644 5641 5639 5638 5636 5634 5633
5685 5686 5686 5686 5687 5687 5687 5686 5686 5685 5684 5683 5683 5682 5680 5679 5678 5676 5675 5674 5672 5671 5669 5667 5666 5664 5662 5660 5658 5656 5653 5651 5648 5646 5644 5641 5639 5637 5634 5632 5630 5628 5627 5625
5678 5678 5679 5679 5679 5679 5679 5679 5678 5677 5677 5676 5675 5674 5673 5671 5670 5669 5668 5666 5665 5663 5661 5660 5658 5656 5655 5652 5650 5648 5646 5643 5641 5638 5636 5634 5631 5629 5627 5625 5623 5621 5619 5617
5671 5672 5672 5672 5672 5672 5672 5671 5671 5670 5669 5668 5667 5666 5665 5664 5662 5661 5660 5658 5657 5655 5654 5652 5650 5649 5647 5645 5642 5640 5638 5635 5633 5631 5628 5626 5624 5622 5620 5618 5616 5614 5612 5610
5665 5665 5666 5666 5666 5665 5665 5664 5664 5663 5662 5661 5660 5659 5658 5657 5655 5654 5652 5651 5649 5647 5646 5644 5642 5641 5639 5636 5634 5632 5630 5628 5625 5623 5620 5618 5616 5614 5612 5610 5608 5606 5604 5602
5659 5659 5659 5660 5659 5659 5658 5658 5657 5656 5655 5654 5653 5652 5651 5650 5649 5647 5645 5643 5642 5640 5638 5636 5634 5632 5630 5628 5626 5624 5622 5620 5618 5615 5613 5611 5608 5607 5605 5603 5601 5599 5597 5595